Location: Biberach+an+der+Riss
(48.0937°N, 9.7888°E)
Time: 04:29:43
(UTC+02:00)

ISS - Pass Details

Date: 27 September 2020
Orbit: 418 x 420 km, 51.6° (Epoch: 20 October)

Event Time Altitude Azimuth Distance (km) Brightness Sun altitude
Rises 21:03:10 0° 288° (WNW) 2,369 1.7 -19.8°
Reaches altitude 10° 21:05:18 10° 293° (WNW) 1,504 0.3 -20.1°
Enters shadow 21:08:35 50° 9° (N) 541 -3.2 -20.7°
